IR3ZXT Weather Reports


time (UTC)temp
C
wind
direction
speed
KPH
gust
KPH
rain 1hr
cm
rain 24hr
cm
rain mn
cm
humidity
%
barometer
mb
20260906095952 21 225 9.7 9.7 0.00 0.00 0.00 59 875.0
20260906095452 21 180 0.0 0.0 0.00 0.00 0.00 58 875.1
20260906094952 21 180 0.0 8.0 0.00 0.00 0.00 56 875.0
20260906094452 20 225 0.0 9.7 0.00 0.00 0.00 59 875.0
20260906093952 20 157 0.0 6.4 0.00 0.00 0.00 60 875.1
20260906093452 20 225 9.7 9.7 0.00 0.00 0.00 61 875.1
20260906092952 20 247 0.0 14.5 0.00 0.00 0.00 61 875.2
20260906092452 20 225 0.0 9.7 0.00 0.00 0.00 60 875.1
20260906091952 21 202 0.0 8.0 0.00 0.00 0.00 57 875.2
20260906091452 22 157 0.0 11.3 0.00 0.00 0.00 54 875.2
20260906090952 23 180 0.0 9.7 0.00 0.00 0.00 52 875.2
20260906090452 23 157 0.0 6.4 0.00 0.00 0.00 54 875.1
20260906085952 22 180 0.0 0.0 0.00 0.00 0.00 56 875.1
20260906085452 22 157 0.0 1.6 0.00 0.00 0.00 55 875.1
20260906084952 21 202 0.0 6.4 0.00 0.00 0.00 56 875.1
20260906084452 22 67 0.0 0.0 0.00 0.00 0.00 55 875.0
20260906083952 22 45 0.0 0.0 0.00 0.00 0.00 54 875.1
20260906083532 23 45 0.0 0.0 0.00 0.00 0.00 54 875.1
20260906083452 23 45 0.0 0.0 0.00 0.00 0.00 54 875.1
20260906082952 23 67 0.0 0.0 0.00 0.00 0.00 55 875.1
20260906082452 22 45 0.0 0.0 0.00 0.00 0.00 59 875.0
20260906081952 21 45 0.0 0.0 0.00 0.00 0.00 62 875.0
20260906081452 19 135 0.0 0.0 0.00 0.00 0.00 62 875.0
20260906080952 18 135 0.0 0.0 0.00 0.00 0.00 62 875.0
20260906080452 18 135 0.0 0.0 0.00 0.00 0.00 61 875.0
20260906075952 18 112 0.0 0.0 0.00 0.00 0.00 60 875.0
20260906075452 20 112 0.0 0.0 0.00 0.00 0.00 58 875.0
20260906074952 20 112 0.0 0.0 0.00 0.00 0.00 57 875.0
20260906074452 22 112 0.0 0.0 0.00 0.00 0.00 55 874.9
20260906073952 23 112 0.0 0.0 0.00 0.00 0.00 53 874.8
20260906073452 23 112 0.0 0.0 0.00 0.00 0.00 53 874.8
20260906072952 23 112 0.0 0.0 0.00 0.00 0.00 55 874.7
20260906072452 22 112 0.0 0.0 0.00 0.00 0.00 58 875.0
20260906071952 21 112 0.0 0.0 0.00 0.00 0.00 60 875.0
20260906071452 20 112 0.0 0.0 0.00 0.00 0.00 61 874.9
20260906070952 20 112 0.0 0.0 0.00 0.00 0.00 63 874.9
20260906070452 19 112 0.0 0.0 0.00 0.00 0.00 64 874.8
20260906065952 18 90 0.0 0.0 0.00 0.00 0.00 66 874.8
20260906065452 18 112 0.0 0.0 0.00 0.00 0.00 66 874.7
20260906064952 18 67 0.0 0.0 0.00 0.00 0.00 67 874.8
20260906064452 17 67 0.0 0.0 0.00 0.00 0.00 68 874.8
20260906063952 17 67 0.0 0.0 0.00 0.00 0.00 69 874.8
20260906063452 16 67 0.0 0.0 0.00 0.00 0.00 70 874.7
20260906062952 16 67 0.0 0.0 0.00 0.00 0.00 71 874.8
20260906062452 15 67 0.0 0.0 0.00 0.00 0.00 72 874.6
20260906061952 15 67 0.0 0.0 0.00 0.00 0.00 73 874.7
20260906061452 15 67 0.0 0.0 0.00 0.00 0.00 73 874.6
20260906060952 14 67 0.0 0.0 0.00 0.00 0.00 74 874.6
20260906060452 13 67 0.0 0.0 0.00 0.00 0.00 74 874.6
20260906055952 13 67 0.0 0.0 0.00 0.00 0.00 74 874.5
20260906055452 13 67 0.0 0.0 0.00 0.00 0.00 74 874.5
20260906054952 12 67 0.0 0.0 0.00 0.00 0.00 75 874.4
20260906054452 12 67 0.0 0.0 0.00 0.00 0.00 76 874.4
20260906054024 12 67 0.0 0.0 0.00 0.00 0.00 75 874.3
20260906053952 12 67 0.0 0.0 0.00 0.00 0.00 75 874.3
20260906053452 12 67 0.0 0.0 0.00 0.00 0.00 73 874.4
20260906052952 12 67 0.0 0.0 0.00 0.00 0.00 72 874.3
20260906052452 12 67 0.0 0.0 0.00 0.00 0.00 73 874.2
20260906051952 11 67 0.0 0.0 0.00 0.00 0.00 72 874.3
20260906051452 11 90 0.0 0.0 0.00 0.00 0.00 74 874.1
20260906050952 11 90 0.0 0.0 0.00 0.00 0.00 72 874.1
20260906050453 11 67 0.0 0.0 0.00 0.00 0.00 69 874.1
20260906045953 11 67 0.0 0.0 0.00 0.00 0.00 66 873.9
20260906045452 11 67 0.0 0.0 0.00 0.00 0.00 65 873.9
20260906044953 11 67 0.0 0.0 0.00 0.00 0.00 65 873.9
20260906044453 12 67 0.0 0.0 0.00 0.00 0.00 64 873.9
20260906043953 12 67 0.0 0.0 0.00 0.00 0.00 62 873.9
20260906043453 12 67 0.0 0.0 0.00 0.00 0.00 61 873.9
20260906042953 12 67 0.0 0.0 0.00 0.00 0.00 61 873.9
20260906042453 12 67 0.0 0.0 0.00 0.00 0.00 61 873.9
20260906041953 12 67 0.0 0.0 0.00 0.00 0.00 61 873.8
20260906041453 12 67 0.0 0.0 0.00 0.00 0.00 61 873.7
20260906040953 12 90 0.0 0.0 0.00 0.00 0.00 61 873.8
20260906040453 12 112 0.0 0.0 0.00 0.00 0.00 61 873.8
20260906035953 12 225 0.0 0.0 0.00 0.00 0.00 62 873.9
20260906035453 12 225 0.0 0.0 0.00 0.00 0.00 62 873.9
20260906034953 12 247 0.0 0.0 0.00 0.00 0.00 62 873.9
20260906034453 12 247 0.0 0.0 0.00 0.00 0.00 61 873.8
20260906033953 12 247 0.0 0.0 0.00 0.00 0.00 62 873.7
20260906033453 12 247 0.0 0.0 0.00 0.00 0.00 62 873.8
20260906032953 12 247 0.0 0.0 0.00 0.00 0.00 62 873.8
20260906032453 12 247 0.0 0.0 0.00 0.00 0.00 62 873.7
20260906031953 12 247 0.0 0.0 0.00 0.00 0.00 61 873.7
20260906031453 12 247 0.0 0.0 0.00 0.00 0.00 60 873.6
20260906030953 12 247 0.0 0.0 0.00 0.00 0.00 59 873.6
20260906030453 12 247 0.0 0.0 0.00 0.00 0.00 59 873.8
20260906025953 12 247 0.0 0.0 0.00 0.00 0.00 59 873.8
20260906025453 12 247 0.0 0.0 0.00 0.00 0.00 59 873.8
20260906024953 12 247 0.0 0.0 0.00 0.00 0.00 59 873.8
20260906024453 12 247 0.0 0.0 0.00 0.00 0.00 60 873.8
20260906023953 12 247 0.0 0.0 0.00 0.00 0.00 60 873.8
20260906023453 12 247 0.0 0.0 0.00 0.00 0.00 59 873.8
20260906022953 12 247 0.0 0.0 0.00 0.00 0.00 59 873.9
20260906022453 12 247 0.0 0.0 0.00 0.00 0.00 59 873.9
20260906021953 12 247 0.0 0.0 0.00 0.00 0.00 59 873.9
20260906021453 12 247 0.0 0.0 0.00 0.00 0.00 59 873.9
20260906020953 12 247 0.0 0.0 0.00 0.00 0.00 59 873.9
20260906020453 12 247 0.0 0.0 0.00 0.00 0.00 59 873.9
20260906015953 12 247 0.0 0.0 0.00 0.00 0.00 59 873.8
20260906015453 13 247 0.0 0.0 0.00 0.00 0.00 59 873.8
20260906014953 13 247 0.0 0.0 0.00 0.00 0.00 59 873.7
20260906014453 13 247 0.0 0.0 0.00 0.00 0.00 59 873.8
20260906013953 13 247 0.0 0.0 0.00 0.00 0.00 59 873.7
20260906013453 13 247 0.0 0.0 0.00 0.00 0.00 59 873.7
20260906012953 13 247 0.0 0.0 0.00 0.00 0.00 59 873.7
20260906012453 13 247 0.0 0.0 0.00 0.00 0.00 59 873.7
20260906011953 13 247 0.0 0.0 0.00 0.00 0.00 59 873.7
20260906011453 13 247 0.0 0.0 0.00 0.00 0.00 59 873.6
20260906010953 13 247 0.0 0.0 0.00 0.00 0.00 59 873.6
20260906010453 13 247 0.0 0.0 0.00 0.00 0.00 60 873.6
20260906005953 13 247 0.0 0.0 0.00 0.00 0.00 60 873.6
20260906005453 13 247 0.0 0.0 0.00 0.00 0.00 60 873.8
20260906004953 13 247 0.0 0.0 0.00 0.00 0.00 61 873.9
20260906004453 13 247 0.0 0.0 0.00 0.00 0.00 61 873.8
20260906003953 13 247 0.0 0.0 0.00 0.00 0.00 61 873.7
20260906003453 13 247 0.0 0.0 0.00 0.00 0.00 61 873.8
20260906002953 13 247 0.0 0.0 0.00 0.00 0.00 61 873.9
20260906002453 13 247 0.0 0.0 0.00 0.00 0.00 60 873.7
20260906001953 13 247 0.0 0.0 0.00 0.00 0.00 58 873.9
20260906001453 13 247 0.0 0.0 0.00 0.00 0.00 57 873.8
20260906000953 13 247 0.0 0.0 0.00 0.00 0.00 57 873.9
20260906000549 13 247 0.0 0.0 0.00 0.00 0.00 57 873.8
20260906000455 13 247 0.0 0.0 0.00 0.00 0.00 57 873.8
20260905235953 13 247 0.0 0.0 0.00 0.00 0.00 57 873.9
20260905235453 13 247 0.0 0.0 0.00 0.00 0.00 57 873.9
20260905234953 13 247 0.0 0.0 0.00 0.00 0.00 57 873.8
20260905234453 13 247 0.0 0.0 0.00 0.00 0.00 57 873.8
20260905233953 13 247 0.0 0.0 0.00 0.00 0.00 57 873.6
20260905233453 13 247 0.0 0.0 0.00 0.00 0.00 58 873.8
20260905232953 13 247 0.0 0.0 0.00 0.00 0.00 58 873.8
20260905232453 13 247 0.0 0.0 0.00 0.00 0.00 58 873.8
20260905231953 14 247 0.0 0.0 0.00 0.00 0.00 58 873.8
20260905231453 14 247 0.0 0.0 0.00 0.00 0.00 57 873.9
20260905230953 14 247 0.0 0.0 0.00 0.00 0.00 57 873.9
20260905230453 14 247 0.0 0.0 0.00 0.00 0.00 57 873.8
20260905225953 14 247 0.0 0.0 0.00 0.00 0.00 57 873.8
20260905225453 14 247 0.0 0.0 0.00 0.00 0.00 58 873.8
20260905224953 14 247 0.0 0.0 0.00 0.00 0.00 59 873.8
20260905224453 15 247 0.0 0.0 0.00 0.00 0.00 56 873.8
20260905223953 15 247 0.0 0.0 0.00 0.00 0.00 56 873.7
20260905223453 15 247 0.0 0.0 0.00 0.00 0.00 55 873.7
20260905222953 15 247 0.0 0.0 0.00 0.00 0.00 54 873.7
20260905222453 15 247 0.0 0.0 0.00 0.00 0.00 53 873.6
20260905221953 15 247 0.0 0.0 0.00 0.00 0.00 53 873.6
20260905221453 15 247 0.0 0.0 0.00 0.00 0.00 52 873.6
20260905220953 15 247 0.0 0.0 0.00 0.00 0.00 52 873.5
20260905220453 15 247 0.0 0.0 0.00 0.00 0.00 51 873.6
20260905215953 15 247 0.0 8.0 0.00 0.00 0.00 51 873.5
20260905215453 15 247 8.0 8.0 0.00 0.00 0.00 50 873.5
20260905214953 15 247 0.0 3.2 0.00 0.00 0.00 50 873.5
20260905214453 15 247 0.0 12.9 0.00 0.00 0.00 50 873.5
20260905213953 15 247 0.0 6.4 0.00 0.00 0.00 50 873.4
20260905213453 15 247 0.0 9.7 0.00 0.00 0.00 50 873.5
20260905212953 15 270 0.0 0.0 0.00 0.00 0.00 50 873.5
20260905212453 15 292 0.0 0.0 0.00 0.00 0.00 50 873.5
20260905211953 15 292 0.0 0.0 0.00 0.00 0.00 50 873.5
20260905211453 15 292 0.0 0.0 0.00 0.00 0.00 51 873.5
20260905210953 15 292 0.0 0.0 0.00 0.00 0.00 51 873.5
20260905210453 15 292 0.0 0.0 0.00 0.00 0.00 51 873.5
20260905205953 15 315 0.0 0.0 0.00 0.00 0.00 52 873.5
20260905205453 15 315 0.0 0.0 0.00 0.00 0.00 52 873.6
20260905204953 15 315 0.0 0.0 0.00 0.00 0.00 52 873.5
20260905204453 15 337 0.0 0.0 0.00 0.00 0.00 53 873.5
20260905203953 15 337 0.0 0.0 0.00 0.00 0.00 53 873.5
20260905203454 15 337 0.0 0.0 0.00 0.00 0.00 53 873.4
20260905202953 15 337 0.0 0.0 0.00 0.00 0.00 53 873.6
20260905202453 15 337 0.0 0.0 0.00 0.00 0.00 53 873.5
20260905201953 15 337 0.0 8.0 0.00 0.00 0.00 53 873.6
20260905201453 15 337 0.0 0.0 0.00 0.00 0.00 53 873.5
20260905200953 15 337 0.0 0.0 0.00 0.00 0.00 54 873.5
20260905200453 15 337 0.0 0.0 0.00 0.00 0.00 54 873.5
20260905200055 15 337 0.0 0.0 0.00 0.00 0.00 54 873.5
20260905195953 15 337 0.0 0.0 0.00 0.00 0.00 54 873.5
20260905195453 15 337 0.0 0.0 0.00 0.00 0.00 54 873.5
20260905194953 15 337 0.0 0.0 0.00 0.00 0.00 54 873.3
20260905194453 15 337 0.0 6.4 0.00 0.00 0.00 54 873.4
20260905193953 15 337 0.0 4.8 0.00 0.00 0.00 54 873.4
20260905193453 15 315 0.0 0.0 0.00 0.00 0.00 54 873.3
20260905192953 15 315 0.0 0.0 0.00 0.00 0.00 55 873.3
20260905192453 15 315 0.0 0.0 0.00 0.00 0.00 55 873.3
20260905191954 15 315 0.0 0.0 0.00 0.00 0.00 55 873.3
20260905191534 16 315 0.0 4.8 0.00 0.00 0.00 55 873.2
20260905191453 16 315 0.0 4.8 0.00 0.00 0.00 55 873.2
20260905190953 16 315 0.0 0.0 0.00 0.00 0.00 55 873.1
20260905190453 16 315 0.0 0.0 0.00 0.00 0.00 55 873.1
20260905185954 16 337 0.0 0.0 0.00 0.00 0.00 54 872.9
20260905185453 16 337 0.0 11.3 0.00 0.00 0.00 54 872.8
20260905184954 16 337 0.0 9.7 0.00 0.00 0.00 54 872.7
20260905184454 16 315 0.0 0.0 0.00 0.00 0.00 53 872.7
20260905184030 16 292 0.0 0.0 0.00 0.00 0.00 53 872.7
20260905183954 16 292 0.0 0.0 0.00 0.00 0.00 53 872.7
20260905183454 16 292 0.0 0.0 0.00 0.00 0.00 53 872.6
20260905182954 16 292 0.0 0.0 0.00 0.00 0.00 53 872.7
20260905182454 16 292 0.0 0.0 0.00 0.00 0.00 53 872.6
20260905181954 16 270 0.0 0.0 0.00 0.00 0.00 53 872.6
20260905181454 16 270 0.0 0.0 0.00 0.00 0.00 54 872.6
20260905181054 16 270 0.0 0.0 0.00 0.00 0.00 54 872.5
20260905180954 16 270 0.0 0.0 0.00 0.00 0.00 54 872.5
20260905180454 16 270 0.0 6.4 0.00 0.00 0.00 54 872.5
20260905175954 16 270 3.2 9.7 0.00 0.00 0.00 55 872.3
20260905175454 16 270 0.0 19.3 0.00 0.00 0.00 55 872.4
20260905174954 16 270 11.3 11.3 0.00 0.00 0.00 59 872.2
20260905174531 16 247 0.0 8.0 0.00 0.00 0.00 59 872.2
20260905174454 16 247 0.0 8.0 0.00 0.00 0.00 59 872.2
20260905173954 17 270 0.0 9.7 0.00 0.00 0.00 59 872.2
20260905173454 17 270 6.4 9.7 0.00 0.00 0.00 61 872.2
20260905172954 17 270 3.2 9.7 0.00 0.00 0.00 58 872.2
20260905172454 18 247 0.0 0.0 0.00 0.00 0.00 58 872.1
20260905171954 18 270 0.0 1.6 0.00 0.00 0.00 57 872.0
20260905171454 18 292 0.0 8.0 0.00 0.00 0.00 51 871.9
20260905170954 18 270 1.6 8.0 0.00 0.00 0.00 53 871.9
20260905170454 18 247 0.0 8.0 0.00 0.00 0.00 55 871.9
20260905165954 18 247 0.0 12.9 0.00 0.00 0.00 57 872.0
20260905165454 18 247 4.8 9.7 0.00 0.00 0.00 60 871.9
20260905164954 18 247 0.0 16.1 0.00 0.00 0.00 59 871.8
20260905164454 18 247 0.0 11.3 0.00 0.00 0.00 65 871.6
20260905163954 18 247 0.0 9.7 0.00 0.00 0.00 56 871.6
20260905163525 18 247 8.0 17.7 0.00 0.00 0.00 59 871.6
20260905163454 18 247 8.0 17.7 0.00 0.00 0.00 59 871.6
20260905162954 18 247 8.0 9.7 0.00 0.00 0.00 66 871.6
20260905162454 18 247 0.0 8.0 0.00 0.00 0.00 66 871.6
20260905161954 17 247 0.0 11.3 0.00 0.00 0.00 67 871.6
20260905161454 17 247 8.0 11.3 0.00 0.00 0.00 65 871.6
20260905160954 17 202 0.0 0.0 0.00 0.00 0.00 64 871.6
20260905160454 17 202 0.0 1.6 0.00 0.00 0.00 64 871.5
20260905155954 17 225 0.0 0.0 0.00 0.00 0.00 64 871.5
20260905155454 18 225 0.0 6.4 0.00 0.00 0.00 64 871.4
20260905154954 18 225 3.2 8.0 0.00 0.00 0.00 65 871.3
20260905154454 18 225 0.0 6.4 0.00 0.00 0.00 65 871.3
20260905153954 18 202 0.0 0.0 0.00 0.00 0.00 62 871.2
20260905153454 18 202 0.0 9.7 0.00 0.00 0.00 65 871.3
20260905152954 18 202 0.0 1.6 0.00 0.00 0.00 63 871.4
20260905152454 19 202 0.0 9.7 0.00 0.00 0.00 63 871.3
20260905151954 20 247 1.6 6.4 0.00 0.00 0.00 63 871.4
20260905151454 20 202 0.0 9.7 0.00 0.00 0.00 60 871.5
20260905150954 20 157 0.0 1.6 0.00 0.00 0.00 59 871.4
20260905150454 20 225 0.0 0.0 0.00 0.00 0.00 57 871.2
20260905150027 20 225 0.0 0.0 0.00 0.00 0.00 57 871.3
20260905145954 20 225 0.0 0.0 0.00 0.00 0.00 57 871.3
20260905145454 20 225 0.0 8.0 0.00 0.00 0.00 57 871.2
20260905144954 20 225 0.0 3.2 0.00 0.00 0.00 56 871.3
20260905144454 20 247 3.2 9.7 0.00 0.00 0.00 55 871.2
20260905143954 20 247 8.0 16.1 0.00 0.00 0.00 56 871.3
20260905143454 20 225 0.0 11.3 0.00 0.00 0.00 56 871.3
20260905142954 20 225 0.0 8.0 0.00 0.00 0.00 58 871.1
20260905142454 20 270 0.0 9.7 0.00 0.00 0.00 56 871.1
20260905141954 19 225 6.4 6.4 0.00 0.00 0.00 57 871.2
20260905141525 19 225 0.0 6.4 0.00 0.00 0.00 55 871.2
20260905141454 19 225 0.0 6.4 0.00 0.00 0.00 55 871.2
20260905140954 19 225 3.2 9.7 0.00 0.00 0.00 56 871.1
20260905140546 20 225 0.0 8.0 0.00 0.00 0.00 57 871.2
20260905140454 20 225 0.0 8.0 0.00 0.00 0.00 57 871.2
20260905135954 20 225 0.0 12.9 0.00 0.00 0.00 56 871.2
20260905135454 20 247 0.0 11.3 0.00 0.00 0.00 56 871.2
20260905135138 20 202 0.0 12.9 0.00 0.00 0.00 52 871.2
20260905134954 20 202 0.0 12.9 0.00 0.00 0.00 52 871.2
20260905134454 20 202 12.9 12.9 0.00 0.00 0.00 55 871.1
20260905133954 21 247 0.0 12.9 0.00 0.00 0.00 56 871.3
20260905133454 21 225 0.0 6.4 0.00 0.00 0.00 56 871.2
20260905132954 21 157 0.0 6.4 0.00 0.00 0.00 55 871.2
20260905132454 21 180 0.0 14.5 0.00 0.00 0.00 53 871.2
20260905131954 21 225 14.5 17.7 0.00 0.00 0.00 52 871.1
20260905131454 21 225 17.7 17.7 0.00 0.00 0.00 51 871.2
20260905131044 21 247 6.4 17.7 0.00 0.00 0.00 52 871.1
20260905130954 21 247 6.4 17.7 0.00 0.00 0.00 52 871.1
20260905130454 21 247 17.7 20.9 0.00 0.00 0.00 51 871.1
20260905125954 21 247 0.0 14.5 0.00 0.00 0.00 50 871.2
20260905125454 21 270 9.7 20.9 0.00 0.00 0.00 54 871.3
20260905124954 21 225 0.0 11.3 0.00 0.00 0.00 50 871.4
20260905124454 20 247 11.3 14.5 0.00 0.00 0.00 50 871.3
20260905123954 20 247 11.3 17.7 0.00 0.00 0.00 44 871.4
20260905123454 20 247 16.1 19.3 0.00 0.00 0.00 46 871.3
20260905123028 20 270 0.0 17.7 0.00 0.00 0.00 48 871.4
20260905122954 20 270 0.0 17.7 0.00 0.00 0.00 48 871.4
20260905122454 20 270 4.8 16.1 0.00 0.00 0.00 55 871.4
20260905121954 20 270 3.2 16.1 0.00 0.00 0.00 52 871.4
20260905121454 20 247 0.0 17.7 0.00 0.00 0.00 47 871.4
20260905120954 20 247 14.5 19.3 0.00 0.00 0.00 47 871.3
20260905120526 20 292 0.0 19.3 0.00 0.00 0.00 45 871.2
20260905120454 20 292 0.0 19.3 0.00 0.00 0.00 45 871.2
20260905115954 21 202 0.0 25.7 0.00 0.00 0.00 46 871.3
20260905115454 21 270 9.7 12.9 0.00 0.00 0.00 53 871.3
20260905114954 20 225 0.0 22.5 0.00 0.00 0.00 49 871.5
20260905114454 21 225 0.0 19.3 0.00 0.00 0.00 46 871.2
20260905113954 21 247 14.5 32.2 0.00 0.00 0.00 46 871.3
20260905113454 21 270 0.0 22.5 0.00 0.00 0.00 48 871.3
20260905112954 22 292 0.0 16.1 0.00 0.00 0.00 48 871.4
20260905112454 22 180 0.0 27.4 0.00 0.00 0.00 44 871.4
20260905111954 22 270 14.5 22.5 0.00 0.00 0.00 48 871.2
20260905111454 21 247 9.7 20.9 0.00 0.00 0.00 47 871.2
20260905111032 22 247 20.9 25.7 0.00 0.00 0.00 43 871.3
20260905110954 22 247 20.9 25.7 0.00 0.00 0.00 43 871.3
20260905110541 22 247 12.9 14.5 0.00 0.00 0.00 45 871.3
20260905110454 22 247 12.9 14.5 0.00 0.00 0.00 45 871.3
20260905105954 22 292 0.0 14.5 0.00 0.00 0.00 45 871.3
20260905105454 22 270 0.0 16.1 0.00 0.00 0.00 43 871.2
20260905104954 22 247 8.0 11.3 0.00 0.00 0.00 45 871.3
20260905104454 21 270 3.2 8.0 0.00 0.00 0.00 45 871.2
20260905103954 21 225 4.8 17.7 0.00 0.00 0.00 44 871.3
20260905103455 21 270 0.0 11.3 0.00 0.00 0.00 45 871.2
20260905102954 21 247 6.4 6.4 0.00 0.00 0.00 49 871.2
20260905102454 21 270 0.0 9.7 0.00 0.00 0.00 45 871.3
20260905101955 21 270 0.0 8.0 0.00 0.00 0.00 48 871.2
20260905101454 21 247 8.0 11.3 0.00 0.00 0.00 48 871.2
20260905100954 21 225 0.0 0.0 0.00 0.00 0.00 48 871.3
20260905100454 21 225 0.0 0.0 0.00 0.00 0.00 46 871.2